Location: Unspecified
(35.6961°N, 0.0000°E)
Time: 14:02:29
(UTC+00:00)

Altair - Pass Details

Date: 26 May 2019
Orbit: 1501 x 1683 km, 47.2° (Epoch: 25 June)

Event Time Altitude Azimuth Distance (km) Brightness Sun altitude
Rises 06:09:29 0° 285° (WNW) 4,931 9.6 14.5°
Reaches altitude 10° 06:12:56 10° 293° (WNW) 3,947 9.2 15.2°
Maximum altitude 06:22:30 43° 2° (N) 2,218 8.8 17.1°
Drops below altitude 10° 06:31:54 10° 72° (ENE) 3,889 12.0 19.0°
Sets 06:35:17 0° 79° (E) 4,853 11.8 19.6°
